Location: Katherine
(14.4670°S, 132.2670°E)
Time: 03:31:01
(UTC+09:30)

ISS - Pass Details

Date: 20 June 2018
Orbit: 402 x 406 km, 51.6° (Epoch: 20 June)

Event Time Altitude Azimuth Distance (km) Brightness Sun altitude
Rises 20:14:54 0° 302° (WNW) 2,303 1.2 -26.6°
Reaches altitude 10° 20:17:12 10° 287° (WNW) 1,450 0.0 -27.1°
Enters shadow 20:18:40 19° 265° (W) 1,023 -1.2 -27.5°
